User: anonymous   Login
Location: Unspecified
(0.0000°N, 0.0000°E)
Time: 16:38:37
(UTC+00:00)
Language:

Clementine 1 - Orbit

View from above orbital plane
View from above orbital plane
View from above satellite
View from above satellite

Ground track
Ground track

The orbit data is extracted from the following two-line orbital elements,

1 22973U 94004A   94048.00000000 -.00014888  00000-0  00000+0 0    18
2 22973  63.7849  59.2741 9660896 205.9202  46.9616  0.08911390    07
Epoch (UTC): 17 February 1994 00:00:00
Eccentricity: 0.9660896
inclination: 63.7849°
perigee height: 801 km
apogee height: 409892 km
right ascension of ascending node: 59.2741°
argument of perigee: 205.9202°
revolutions per day: 0.08911390
mean anomaly at epoch: 46.9616°
orbit number at epoch: 0

The dashed part of the orbit path shows where the satellite is in the earth's shadow,  

DLR